Temperature
20 20 20 20 18 17 19 20 20 21 21 21 21 20 19 19 19 18 18 18 18 18 17 17 17 18 18 18 17 17 17 17 17 17 17 17 17 18 18 18 17 17 17 17 17 17 17 18 18
20 20 20 20 17 18 19 20 20 21 22 22 21 20 19 18 18 18 17 17 18 18 17 17 17 18 18 17 17 17 17 17 17 17 17 17 17 17 17 17 17 17 17 17 17 17 17 17 17
21 20 20 17 18 19 20 20 20 22 22 22 21 20 19 18 18 18 18 18 18 17 17 17 17 17 17 17 17 17 17 17 17 17 17 17 17 17 17 17 17 17 17 17 17 17 17 17 17
21 20 20 18 19 20 20 20 21 22 22 22 21 19 19 19 19 18 18 18 18 17 17 17 17 17 17 17 17 17 17 17 17 17 17 17 17 17 17 17 17 17 17 17 17 17 17 17 17
21 20 18 18 19 20 20 21 21 21 21 21 20 19 18 18 18 18 18 18 18 17 17 17 17 17 17 17 17 17 17 17 17 17 17 17 17 17 17 17 17 17 17 17 17 17 17 17 17
21 19 18 18 20 20 21 22 21 21 21 20 20 18 18 18 18 18 18 17 18 17 17 17 17 17 17 17 17 17 17 17 17 17 17 17 17 17 17 17 17 17 17 17 17 17 17 17 16
20 17 18 19 19 20 21 22 21 21 21 21 20 18 18 18 18 18 18 17 17 17 17 17 17 17 17 17 17 17 17 17 17 17 17 17 17 17 17 16 16 16 16 16 16 17 17 16 16
21 17 19 19 20 20 21 22 22 21 21 21 20 18 18 18 18 18 18 17 17 17 17 17 17 17 17 17 17 17 17 17 16 16 16 16 16 16 16 16 16 16 16 16 16 16 16 16 16
21 17 18 19 20 20 21 21 21 21 21 20 20 20 19 18 18 18 17 17 17 17 17 17 17 17 17 17 17 16 16 16 16 16 16 16 16 16 16 16 16 16 16 16 16 16 16 16 16
20 18 19 20 20 20 21 21 21 21 20 19 19 19 19 18 18 18 17 17 17 17 17 17 17 17 17 17 16 16 16 16 16 16 16 16 16 16 16 16 16 16 16 16 16 16 16 16 16
20 19 20 21 21 21 21 21 21 20 19 19 19 19 18 18 18 18 18 18 17 17 17 17 17 17 17 17 16 16 16 16 16 16 16 16 16 16 16 16 16 16 16 16 16 16 16 16 16
21 21 21 22 22 21 21 21 21 20 20 20 20 20 19 19 18 18 18 18 17 17 17 17 17 17 17 17 16 16 16 16 16 16 16 16 16 16 16 16 16 16 15 15 15 15 15 15 15
21 21 22 22 22 22 21 21 21 20 21 20 20 19 19 19 18 18 18 18 17 17 17 17 17 17 17 17 16 16 16 16 16 16 16 16 16 16 15 15 15 15 15 15 15 15 15 15 15
21 21 21 22 22 22 21 20 20 20 20 20 19 19 19 19 18 18 18 18 17 17 17 17 17 17 17 17 16 16 16 16 16 16 16 16 16 15 15 15 15 15 15 15 15 15 15 15 15
22 20 20 21 21 21 21 19 19 20 20 19 19 19 19 19 18 18 18 18 18 17 17 17 17 17 17 17 16 16 16 16 16 16 16 15 15 15 15 15 15 15 15 15 15 15 15 15 15
20 20 19 20 21 21 20 18 19 20 19 19 19 19 19 18 18 18 18 18 18 17 17 17 17 17 17 16 16 16 16 16 16 16 15 15 15 15 15 15 15 15 15 14 14 14 14 14 14
19 18 19 20 21 21 20 19 19 20 19 19 19 18 18 18 18 18 18 18 18 18 17 17 17 17 17 16 16 16 16 16 15 15 15 15 15 15 15 15 15 14 14 14 14 14 14 14 14
19 19 19 19 20 20 19 18 18 19 19 18 18 18 18 18 18 18 18 18 18 17 17 17 17 16 16 16 16 16 16 15 15 15 15 15 15 15 14 14 14 14 14 14 14 14 14 14 14
20 20 19 20 21 20 19 18 18 18 18 18 18 17 17 17 18 18 18 18 17 17 17 17 17 16 16 16 16 16 15 15 15 15 15 14 14 14 14 14 14 14 14 14 14 13 13 14 14
20 20 19 20 21 20 18 18 18 18 18 18 17 17 17 17 17 17 17 17 17 17 17 17 16 16 16 16 16 15 15 15 15 14 14 14 14 14 14 14 14 14 13 13 13 13 13 13 13
20 19 20 20 20 20 19 18 17 17 18 18 18 18 18 17 17 17 17 17 17 17 17 17 16 16 16 16 15 15 15 15 14 14 14 14 14 14 14 13 13 13 13 13 13 13 13 13 13
20 21 21 20 19 17 19 17 17 17 16 17 17 17 17 17 17 17 17 17 17 17 17 16 16 16 16 16 15 15 15 15 14 14 14 14 13 13 13 13 13 13 13 13 13 12 12 12 12
20 21 21 20 19 18 18 17 16 16 16 16 17 18 18 18 17 17 17 17 17 17 16 16 16 16 16 15 15 15 15 14 14 14 14 14 13 13 13 13 13 13 13 13 12 12 12 12 12
21 20 19 17 17 17 17 17 16 16 17 17 17 17 18 17 17 17 17 17 17 17 16 16 16 16 15 15 15 15 14 14 14 14 13 13 13 13 13 13 13 13 12 12 12 12 12 12 12
19 17 17 17 16 16 17 17 17 17 17 18 17 18 18 17 17 17 17 17 16 16 16 16 16 16 15 15 15 14 14 14 14 14 13 13 13 13 13 13 13 12 12 12 12 12 12 12 12
19 17 16 17 16 16 17 17 17 18 18 19 19 18 18 17 17 17 17 17 16 16 16 16 16 15 15 15 15 14 14 14 13 13 13 13 13 13 12 12 12 12 12 12 12 12 12 12 12
19 17 17 16 17 16 16 17 18 18 18 17 18 18 17 17 17 17 17 17 16 16 16 16 15 15 15 14 14 14 14 14 13 13 13 13 13 12 12 12 12 12 12 12 12 12 12 12 12
20 18 16 16 16 16 17 17 17 17 17 17 16 17 17 17 17 17 17 17 16 16 16 15 15 15 15 14 14 14 13 13 13 13 13 12 12 12 12 12 12 12 12 12 12 12 12 12 12
19 19 17 15 15 16 16 16 18 17 17 16 16 17 17 17 17 17 17 16 16 16 15 15 15 14 14 14 14 13 13 13 13 13 12 12 12 12 12 12 12 12 12 12 11 12 11 11 11
19 18 17 16 16 15 15 16 18 17 17 17 17 17 17 17 17 17 16 16 16 15 15 15 15 14 14 14 13 13 13 13 13 12 12 12 12 12 12 12 12 12 12 11 11 11 11 11 11
Wind_Speed
1 1 3 3 5 5 2 1 2 3 3 4 7 9 8 6 4 5 2 6 7 6 7 8 10 10 10 9 9 9 9 10 10 11 11 12 12 12 12 12 12 11 11 11 11 11 10 10 9
1 1 3 4 5 4 1 0 4 3 4 6 7 7 7 6 4 6 4 6 8 8 7 9 10 10 10 9 9 9 9 9 10 10 11 11 12 12 11 11 11 11 10 10 10 10 9 9 9
0 1 3 4 3 3 3 1 4 4 3 4 4 5 5 5 4 4 6 9 8 7 8 9 10 10 10 9 9 9 9 9 9 10 11 11 11 11 11 11 11 10 10 10 9 9 9 9 8
2 4 4 5 3 1 5 4 3 4 4 5 6 6 4 3 4 6 10 10 9 6 7 9 10 10 9 9 9 9 9 9 9 9 10 10 10 11 11 10 10 10 9 9 9 8 8 8 8
4 4 5 3 2 1 2 3 2 4 3 4 7 6 4 3 8 11 10 10 9 6 7 8 10 9 9 9 9 9 10 9 9 9 9 10 9 10 10 9 9 9 9 9 9 8 8 8 8
4 4 4 2 1 1 1 2 4 6 6 6 7 6 3 3 7 8 9 9 9 8 6 8 9 9 9 9 9 9 9 9 9 9 9 9 8 8 8 8 8 8 9 9 8 8 8 8 8
4 4 2 2 2 2 1 2 4 6 5 4 5 6 4 3 5 8 8 9 8 7 6 5 7 8 9 8 8 8 8 8 9 9 8 8 8 7 7 7 7 7 7 7 7 7 7 7 8
4 4 2 1 3 1 1 2 3 5 4 3 5 7 5 6 6 7 7 7 7 6 5 4 5 5 5 6 7 8 7 7 8 8 8 7 6 6 6 6 6 6 6 6 5 5 6 7 7
4 4 1 1 3 1 2 4 3 4 6 5 4 4 6 10 9 8 7 5 5 6 4 3 4 4 4 4 5 6 6 6 6 6 7 6 5 5 5 5 5 5 5 5 5 5 6 7 7
4 3 3 3 3 3 3 4 2 4 6 5 6 7 9 9 9 9 7 7 6 5 4 4 4 3 4 4 4 4 4 4 4 4 4 4 3 3 4 5 5 5 5 6 6 6 6 6 6
3 4 2 1 3 4 3 2 3 6 3 5 8 10 10 8 8 8 7 6 6 6 5 5 4 4 4 2 4 3 2 2 3 3 3 3 3 3 3 3 3 4 4 5 5 5 4 4 4
2 2 3 2 2 3 3 3 3 4 4 7 10 12 11 10 9 8 8 6 6 6 6 5 5 4 4 3 3 3 2 2 2 3 3 3 2 2 2 2 2 3 3 3 4 3 4 5 5
2 2 2 3 3 3 4 3 3 3 4 6 10 10 9 8 7 6 6 6 5 5 6 5 5 5 4 3 2 3 2 3 3 3 3 4 2 1 1 2 2 3 3 3 3 3 4 4 4
4 3 2 2 3 3 4 2 3 3 5 7 9 9 8 8 8 6 6 5 5 5 5 5 5 5 5 4 3 2 3 4 4 3 4 5 4 2 2 2 3 3 4 4 4 3 3 3 3
2 2 1 2 3 3 4 1 2 5 7 7 8 8 8 7 7 7 8 7 6 6 5 5 5 5 6 5 4 3 3 4 4 4 4 5 6 5 4 3 2 3 4 5 5 5 4 3 4
2 2 1 4 3 4 6 3 5 5 7 7 7 7 7 6 6 6 6 6 6 5 5 5 5 5 5 5 4 4 4 4 4 4 4 5 6 7 5 3 2 3 4 4 3 3 3 4 3
1 1 3 4 3 4 5 4 5 5 7 7 7 7 6 5 4 4 6 6 6 6 6 5 5 6 5 5 4 4 4 4 4 4 4 5 6 7 6 3 3 5 4 3 3 3 2 2 3
4 3 3 4 3 4 4 5 4 4 6 6 7 7 7 7 6 6 6 6 7 6 6 5 5 5 5 4 4 3 3 3 3 3 4 5 5 7 6 4 4 5 4 3 3 3 3 2 1
4 3 4 5 4 3 4 5 5 4 4 5 5 6 7 7 6 5 6 6 6 5 6 5 6 4 4 3 3 3 2 1 1 2 4 4 5 6 6 3 3 3 3 3 3 2 3 2 2
4 3 4 4 2 3 4 4 4 4 6 8 8 7 8 6 4 5 5 6 6 6 6 6 6 5 5 4 3 2 3 2 1 1 3 4 5 5 5 4 3 3 3 3 3 3 2 1 2
4 5 5 5 2 1 1 4 4 4 3 4 6 7 8 9 9 7 6 6 6 6 6 6 6 6 5 5 4 3 3 2 2 1 1 1 3 4 5 4 3 2 2 2 1 2 2 1 1
5 5 5 4 1 3 2 3 6 4 3 5 6 6 8 7 8 8 7 7 7 7 6 6 6 6 6 6 6 5 3 2 2 2 2 1 2 4 4 4 3 2 2 2 1 1 1 2 1
6 5 3 3 2 1 1 2 7 1 3 6 7 8 8 8 9 9 10 10 8 7 6 6 6 6 5 6 6 6 4 2 1 1 2 1 1 2 3 3 2 2 2 2 1 2 1 1 1
2 2 3 4 3 2 5 5 5 4 6 5 6 7 7 8 8 7 8 7 6 5 5 5 6 5 5 6 6 6 6 4 3 2 2 2 1 1 1 3 2 2 2 2 2 2 2 1 1
3 4 3 3 2 5 3 3 6 6 5 6 8 8 7 7 8 7 7 7 7 7 6 6 7 5 5 6 5 6 6 6 6 4 3 2 1 1 2 2 2 2 2 2 2 2 1 1 1
3 7 6 4 4 4 2 4 5 4 3 3 5 6 7 7 8 8 9 8 8 8 8 7 7 5 5 5 5 5 5 4 4 4 3 3 3 3 3 2 2 2 2 2 2 1 1 1 1
3 4 6 5 2 2 4 3 4 2 2 1 4 5 6 7 8 8 8 8 8 9 8 8 8 6 6 5 5 4 4 4 4 3 3 3 3 3 3 2 2 2 2 2 2 1 1 1 1
5 6 4 3 2 2 4 3 4 4 3 2 3 5 6 6 7 7 7 7 7 8 7 7 7 8 6 6 5 5 4 4 4 3 3 3 3 3 3 3 2 2 2 2 2 1 1 1 1
2 2 4 3 4 4 3 5 4 6 5 5 5 5 5 7 7 7 7 7 7 6 7 6 6 6 5 6 5 4 4 4 4 4 4 4 3 3 3 3 3 3 3 3 2 2 2 2 2
5 5 6 4 3 4 3 6 4 3 3 4 5 4 4 5 6 6 6 6 5 6 6 6 6 6 7 6 6 5 4 4 4 4 4 4 4 4 3 3 3 3 2 3 3 4 3 3 3
Wind_Direction
266 67 88 59 56 57 59 2 114 71 59 53 74 83 87 73 88 127 169 134 124 123 122 112 105 99 94 92 96 95 94 93 95 97 94 91 90 90 90 88 87 86 84 83 81 78 76 73 73
33 44 59 58 79 80 28 61 101 99 133 115 82 83 80 75 86 109 119 134 126 124 124 116 110 102 97 92 93 95 98 100 98 97 97 94 92 91 91 90 89 87 86 84 81 77 76 75 72
46 78 80 68 92 138 146 170 129 122 110 101 88 65 83 112 116 131 151 140 125 121 121 120 114 107 102 97 95 96 99 101 102 101 97 98 96 93 92 89 87 87 87 84 79 77 75 75 73
73 48 56 70 79 143 153 180 158 112 72 73 98 71 62 96 132 137 138 136 127 124 121 122 117 111 105 101 97 101 101 100 101 103 100 99 97 95 92 92 90 88 86 83 78 76 75 73 72
67 73 59 56 64 83 152 176 167 104 84 85 95 94 64 33 111 127 134 135 131 129 126 126 120 114 108 104 101 102 103 100 103 106 103 100 97 96 96 95 93 90 87 83 78 74 72 71 68
56 66 77 74 71 83 91 161 112 93 97 98 96 104 102 117 120 132 136 135 137 137 129 127 123 120 113 107 105 105 102 101 103 108 106 104 101 100 99 97 97 96 91 86 80 73 69 67 66
102 86 108 139 107 73 121 99 104 113 107 108 118 105 126 149 141 135 132 130 132 129 125 121 125 124 122 116 111 110 107 104 104 105 105 104 102 102 100 98 99 101 97 91 81 72 68 67 66
126 98 62 108 126 98 9 80 107 108 104 97 103 128 159 179 148 123 118 117 120 122 123 123 126 121 121 124 119 115 110 106 103 102 99 99 97 96 91 90 94 96 94 86 76 68 63 65 67
93 79 94 167 145 154 83 76 42 73 92 68 74 124 151 148 130 114 110 107 121 125 122 121 123 121 120 119 114 111 108 106 104 100 98 85 74 78 83 82 86 86 81 72 65 60 55 54 58
91 120 199 183 150 139 103 95 105 77 75 74 77 84 119 131 130 132 134 135 140 145 147 145 137 127 125 123 108 104 101 99 97 92 97 91 81 84 86 79 71 69 67 60 55 49 49 46 47
133 162 172 122 133 131 119 93 98 115 113 149 146 143 142 139 144 147 150 154 158 158 154 156 157 140 135 120 112 103 93 90 93 95 104 107 93 79 68 63 46 43 49 46 37 36 45 52 59
121 178 159 153 142 135 143 129 101 129 180 168 159 154 152 154 160 163 162 164 158 153 160 159 156 143 142 135 120 113 100 90 90 99 110 108 92 78 68 67 52 49 52 51 45 54 57 60 67
120 158 145 161 140 130 116 118 136 162 166 142 141 145 153 157 160 163 162 162 154 157 165 163 157 154 144 131 126 114 109 104 106 96 98 109 100 101 83 75 65 54 58 62 63 64 67 63 67
174 172 186 184 186 159 137 132 126 200 153 137 140 151 161 166 164 154 157 164 167 163 163 160 153 149 139 140 139 119 112 107 100 95 99 109 106 99 89 76 68 57 64 66 70 68 65 62 66
131 107 322 250 196 184 129 24 220 200 154 149 158 163 160 166 165 166 172 168 169 163 157 155 150 145 144 143 141 119 111 109 103 100 96 97 102 106 102 91 74 65 79 77 74 62 57 58 58
63 85 261 269 197 189 137 226 249 190 158 167 173 171 169 174 169 164 164 160 160 152 149 154 151 142 144 141 133 112 106 101 97 101 98 100 103 106 102 94 85 80 77 74 77 65 59 49 47
6 203 238 273 228 177 160 212 240 189 168 178 181 179 175 169 172 166 158 158 157 151 145 144 140 139 141 134 120 109 104 96 98 96 91 99 107 106 101 92 88 87 74 65 76 63 72 60 40
223 216 241 244 242 163 182 225 233 213 183 186 184 174 172 176 188 182 167 162 157 149 136 125 123 130 131 116 102 92 85 75 80 86 90 101 107 108 103 91 83 86 79 62 63 71 53 61 38
202 212 243 245 229 174 205 230 238 211 174 189 190 182 181 191 191 175 164 158 148 139 138 133 124 125 124 116 120 116 125 121 84 74 86 100 108 111 106 97 86 85 89 85 79 80 61 35 33
209 228 252 272 242 186 203 242 245 222 202 196 195 191 187 181 171 173 163 150 152 157 155 146 143 144 143 138 141 145 147 148 140 77 81 105 113 113 114 112 118 106 97 79 68 79 71 30 45
233 210 224 232 272 323 109 312 284 261 224 205 203 195 188 182 180 181 168 162 159 162 165 162 157 150 145 130 114 99 80 72 67 75 70 79 119 112 109 114 117 115 114 116 105 102 101 75 12
252 234 218 222 178 260 174 278 280 246 250 229 218 202 197 191 180 178 174 173 175 178 174 160 159 152 146 139 134 135 134 145 194 174 158 127 116 115 117 122 125 128 130 136 144 109 116 115 57
225 228 229 230 185 283 270 194 285 295 255 241 217 204 199 191 180 178 182 183 180 172 168 164 160 152 149 150 150 145 133 148 139 131 143 145 154 132 135 137 141 149 148 153 135 108 115 130 141
204 22 14 45 79 287 241 185 269 247 225 224 208 202 194 187 180 180 181 173 168 158 155 154 157 156 153 151 152 151 150 148 137 145 163 178 205 212 171 159 165 171 170 176 178 163 143 138 130
83 83 23 358 6 251 245 185 245 248 225 196 191 193 187 175 171 174 171 169 166 161 160 158 156 158 160 158 161 162 162 164 169 172 179 175 184 217 223 188 181 180 188 186 173 164 173 173 164
191 146 165 201 224 267 298 228 258 268 245 185 172 169 160 162 169 175 179 177 172 170 167 164 162 160 164 168 175 171 165 168 180 185 186 188 199 214 210 197 200 203 193 183 167 165 199 183 200
170 191 178 158 222 253 277 286 316 352 5 92 143 150 165 170 174 177 178 176 173 172 174 173 170 167 174 174 170 172 173 169 180 196 197 197 205 213 197 192 194 206 192 182 169 180 200 187 219
172 166 112 132 180 246 278 259 236 239 246 206 176 180 185 175 175 176 178 179 177 178 177 174 174 179 181 175 175 178 185 180 183 183 197 206 207 204 187 192 197 197 190 181 175 182 201 178 245
170 156 138 147 170 174 242 265 233 208 200 182 193 197 189 180 179 180 183 183 177 174 173 176 179 177 177 180 183 181 190 189 186 189 202 207 199 191 194 204 203 199 198 193 189 206 200 200 238
185 187 154 167 223 182 190 263 282 208 187 178 191 197 190 182 177 176 174 171 171 175 179 182 186 186 187 187 185 189 192 191 191 205 214 207 199 204 203 202 202 208 209 206 200 213 214 214 228
Height
1506 1506 1506 1507 1510 1519 1522 1516 1511 1510 1509 1510 1509 1510 1513 1517 1520 1527 1524 1523 1523 1523 1523 1523 1522 1522 1521 1520 1520 1520 1519 1519 1519 1519 1519 1519 1519 1519 1519 1519 1519 1519 1519 1519 1519 1519 1519 1519 1519
1506 1506 1507 1507 1517 1528 1525 1515 1512 1510 1510 1510 1511 1512 1514 1518 1520 1522 1522 1523 1524 1523 1524 1523 1523 1522 1522 1521 1521 1520 1520 1520 1520 1520 1520 1520 1520 1520 1520 1520 1520 1520 1520 1520 1520 1520 1520 1519 1519
1507 1506 1508 1510 1518 1525 1522 1514 1511 1509 1509 1509 1512 1514 1516 1520 1521 1522 1523 1523 1524 1524 1524 1524 1523 1523 1522 1522 1521 1521 1520 1520 1520 1520 1520 1521 1521 1521 1521 1520 1520 1520 1520 1521 1520 1520 1520 1520 1520
1506 1508 1509 1515 1518 1515 1513 1512 1510 1509 1510 1510 1512 1516 1519 1521 1521 1522 1523 1524 1524 1525 1525 1525 1524 1524 1523 1522 1522 1521 1521 1521 1521 1521 1521 1521 1522 1521 1521 1521 1521 1521 1521 1521 1521 1521 1521 1520 1520
1506 1508 1514 1520 1517 1513 1511 1509 1509 1509 1510 1512 1513 1518 1521 1522 1522 1523 1523 1525 1525 1525 1525 1525 1525 1524 1524 1523 1523 1522 1522 1522 1522 1522 1522 1522 1522 1522 1522 1522 1522 1522 1522 1522 1522 1522 1521 1521 1521
1508 1509 1521 1525 1519 1513 1511 1510 1510 1510 1512 1514 1515 1518 1522 1523 1523 1524 1525 1525 1526 1525 1525 1525 1525 1525 1524 1524 1524 1523 1523 1523 1523 1523 1523 1523 1523 1523 1523 1523 1523 1523 1523 1523 1522 1522 1522 1522 1521
1509 1513 1520 1520 1519 1516 1512 1510 1510 1511 1513 1514 1515 1519 1522 1524 1524 1525 1526 1526 1526 1526 1526 1526 1526 1526 1525 1525 1525 1525 1524 1524 1524 1524 1524 1524 1524 1524 1524 1524 1524 1524 1524 1524 1523 1523 1523 1523 1522
1508 1513 1519 1519 1519 1517 1512 1511 1512 1512 1514 1515 1516 1518 1521 1523 1524 1525 1526 1526 1527 1527 1527 1527 1527 1526 1526 1526 1526 1526 1526 1526 1526 1525 1525 1525 1525 1525 1525 1525 1525 1525 1525 1525 1524 1524 1524 1523 1523
1508 1517 1523 1518 1517 1515 1512 1512 1513 1513 1514 1515 1516 1517 1519 1522 1524 1525 1526 1527 1527 1527 1527 1528 1527 1527 1527 1527 1527 1527 1527 1526 1526 1526 1526 1526 1526 1526 1526 1526 1526 1525 1525 1525 1525 1525 1524 1524 1524
1508 1519 1517 1512 1512 1512 1512 1512 1514 1515 1516 1517 1518 1519 1521 1522 1523 1524 1525 1526 1527 1527 1528 1528 1528 1528 1528 1527 1527 1527 1527 1527 1527 1527 1527 1527 1527 1527 1527 1526 1526 1526 1526 1526 1525 1525 1525 1524 1524
1508 1513 1511 1510 1511 1511 1512 1513 1514 1515 1517 1518 1518 1519 1521 1522 1523 1524 1525 1526 1526 1527 1528 1528 1529 1528 1528 1528 1528 1528 1528 1528 1528 1528 1528 1528 1528 1527 1527 1527 1527 1527 1526 1526 1526 1526 1525 1525 1525
1509 1509 1509 1510 1510 1511 1512 1513 1514 1514 1516 1517 1517 1518 1520 1521 1523 1524 1524 1525 1526 1527 1528 1528 1529 1529 1529 1529 1529 1529 1529 1529 1528 1528 1528 1528 1528 1528 1528 1527 1527 1527 1527 1526 1526 1526 1526 1525 1525
1509 1509 1509 1510 1510 1511 1512 1513 1514 1515 1515 1516 1517 1519 1520 1521 1522 1524 1525 1525 1526 1527 1527 1528 1528 1528 1529 1529 1529 1529 1529 1529 1529 1529 1529 1529 1528 1528 1528 1528 1527 1527 1527 1527 1526 1526 1526 1525 1525
1509 1509 1509 1509 1510 1510 1512 1513 1514 1515 1515 1516 1517 1518 1520 1521 1522 1523 1524 1525 1526 1526 1527 1527 1528 1529 1529 1529 1529 1529 1530 1530 1529 1529 1529 1529 1529 1528 1528 1528 1528 1527 1527 1527 1527 1526 1526 1525 1525
1508 1510 1511 1509 1509 1510 1511 1516 1514 1514 1515 1515 1516 1517 1519 1520 1521 1522 1523 1524 1525 1525 1526 1527 1528 1528 1529 1529 1529 1529 1530 1530 1529 1529 1529 1529 1529 1528 1528 1528 1528 1527 1527 1527 1527 1526 1526 1525 1525
1509 1514 1518 1511 1508 1509 1514 1522 1514 1513 1513 1514 1515 1516 1518 1519 1520 1521 1522 1523 1524 1525 1526 1526 1527 1528 1528 1529 1529 1529 1529 1529 1529 1529 1529 1529 1529 1529 1528 1528 1528 1528 1527 1527 1526 1526 1526 1525 1525
1516 1521 1519 1513 1507 1508 1512 1517 1512 1511 1512 1512 1513 1515 1516 1518 1519 1520 1521 1522 1522 1523 1524 1525 1526 1527 1528 1528 1529 1529 1529 1529 1529 1529 1529 1529 1529 1529 1528 1528 1528 1528 1527 1527 1526 1526 1525 1525 1524
1521 1519 1517 1515 1508 1508 1512 1513 1510 1509 1510 1511 1512 1513 1514 1515 1517 1518 1519 1521 1522 1522 1523 1524 1526 1527 1527 1528 1528 1528 1528 1529 1529 1529 1529 1528 1528 1528 1528 1528 1528 1527 1527 1527 1526 1526 1525 1525 1524
1510 1514 1516 1511 1505 1508 1512 1512 1510 1508 1509 1510 1510 1511 1512 1514 1515 1517 1518 1519 1520 1522 1523 1524 1524 1526 1526 1527 1527 1527 1527 1528 1528 1528 1528 1528 1528 1528 1528 1528 1527 1527 1527 1526 1526 1525 1525 1525 1524
1508 1513 1514 1509 1504 1507 1511 1512 1508 1506 1506 1507 1508 1509 1510 1511 1513 1514 1516 1517 1519 1520 1521 1522 1523 1524 1525 1525 1526 1527 1527 1527 1527 1528 1528 1528 1528 1528 1527 1527 1527 1527 1526 1526 1526 1525 1525 1524 1524
1507 1511 1511 1510 1506 1506 1510 1514 1509 1505 1504 1505 1505 1506 1507 1508 1510 1512 1514 1515 1517 1518 1519 1521 1522 1523 1524 1524 1525 1526 1526 1526 1526 1526 1527 1527 1527 1527 1527 1527 1527 1527 1526 1526 1525 1525 1525 1524 1524
1510 1502 1503 1505 1512 1519 1513 1527 1512 1506 1504 1502 1502 1503 1504 1506 1507 1509 1511 1513 1515 1516 1518 1519 1520 1521 1522 1523 1523 1524 1524 1524 1524 1525 1526 1526 1527 1527 1527 1526 1526 1526 1526 1525 1525 1525 1524 1524 1524
1502 1498 1500 1503 1510 1517 1515 1524 1517 1506 1505 1501 1499 1499 1501 1503 1505 1506 1508 1510 1512 1514 1516 1517 1519 1520 1521 1521 1522 1523 1523 1523 1524 1524 1525 1525 1525 1525 1526 1526 1526 1525 1525 1525 1524 1524 1524 1524 1523
1495 1499 1503 1508 1515 1527 1517 1522 1519 1508 1501 1497 1496 1497 1498 1500 1502 1504 1506 1508 1510 1512 1514 1515 1516 1518 1519 1520 1521 1521 1522 1522 1523 1523 1523 1524 1524 1524 1524 1525 1525 1524 1524 1524 1524 1523 1523 1523 1523
1498 1513 1526 1527 1532 1529 1513 1516 1513 1498 1494 1492 1493 1494 1496 1498 1500 1502 1504 1506 1508 1510 1512 1513 1514 1515 1517 1518 1519 1519 1520 1521 1521 1521 1522 1522 1522 1523 1523 1523 1523 1523 1523 1523 1523 1522 1522 1522 1522
1500 1509 1527 1534 1534 1526 1512 1515 1505 1493 1491 1490 1491 1492 1495 1496 1498 1499 1501 1503 1505 1507 1509 1511 1512 1513 1514 1516 1517 1518 1518 1519 1520 1520 1520 1520 1521 1521 1522 1522 1522 1522 1522 1522 1521 1521 1521 1521 1520
1500 1506 1506 1519 1520 1525 1519 1509 1500 1493 1492 1491 1491 1492 1493 1495 1496 1498 1500 1502 1503 1505 1507 1508 1510 1511 1512 1513 1514 1515 1516 1517 1518 1518 1518 1518 1519 1520 1520 1520 1520 1520 1520 1520 1520 1519 1519 1519 1519
1492 1497 1509 1517 1526 1531 1521 1513 1508 1498 1495 1492 1492 1492 1492 1493 1495 1496 1498 1500 1502 1503 1505 1507 1508 1509 1510 1511 1512 1513 1514 1514 1515 1516 1516 1517 1517 1517 1518 1518 1518 1518 1518 1518 1518 1518 1518 1518 1517
1495 1497 1503 1513 1517 1526 1528 1518 1494 1493 1491 1492 1491 1491 1491 1492 1493 1495 1496 1498 1500 1501 1503 1505 1506 1507 1508 1509 1510 1511 1511 1512 1513 1513 1514 1514 1514 1515 1515 1516 1516 1516 1516 1516 1516 1516 1516 1515 1515
1489 1493 1501 1514 1516 1517 1522 1515 1488 1488 1488 1489 1489 1490 1490 1491 1492 1493 1495 1496 1498 1499 1501 1502 1503 1505 1506 1507 1508 1508 1509 1510 1510 1510 1511 1511 1512 1512 1513 1513 1513 1514 1514 1514 1514 1514 1514 1513 1513